Current weather by "City, St" or "zip code"  
 

Current Conditions: Greenville, ME

NULL


50.0 F

Last Updated on Oct 23 2020, 10:56 pm EDT
Humidity: 89%
Wind Speed: 5.8 mph
Barometer 30.03 in
Dewpoint: 46.9 F
Visibility: NULL mi
Precip: --
Heat Index: NA
Wind Chill: 48 F
Current conditions at:

Greenville, ME (KGNR)

Lat: 45.46462 Lon: 69.5538

Local Radar Image active severe weather and emergency alerts image image weather storm and storm spotter reports image weather observation monitoring service image
Local
Radar
Active
Alerts
Storm Reports Obs
Monitoring

Sign-up For Email & Text Message Weather Alert Notification Services



Advertise Here

Observation History for Greenville, ME


Time Wind
(mph)
Vis
(mi)
Weather Precip (in) Temperature (F) Relative
Humidity
Wind
Chill
(F)
Heat
Index
(F)
Pressure
Air Dwpt altimeter
(in)
sea level
(mb)
Rmks
10:56 pm EDT 5.8 NULL NULL -- 50.0 46.9 89% 48 NA 30.03 1017.6
9:56 pm EDT 3.5 NULL NULL -- 50.0 46.9 89% NA NA 30.04 1018.0
8:56 pm EDT 5.8 G 18.4 NULL NULL -- 50.0 45.0 83% 48 NA 30.06 1018.7
7:56 pm EDT S 6.9 NULL NULL -- 51.0 44.1 77% 48 NA 30.08 1019.3
6:56 pm EDT S 6.9 NULL NULL -- 52.0 41.0 66% 50 NA 30.09 1019.6
5:56 pm EDT S 9.2 NULL NULL -- 52.0 41.0 66% 49 NA 30.09 1019.9
4:56 pm EDT S 8.1 NULL NULL -- 53.0 42.1 66% 50 NA 30.10 1020.1
3:56 pm EDT S 11.5 G 18.4 NULL NULL -- 53.0 42.1 66% 49 NA 30.12 1020.7
2:56 pm EDT S 8.1 G 18.4 NULL NULL -- 53.0 42.1 66% 50 NA 30.13 1020.9
1:56 pm EDT S 10.4 NULL NULL -- 53.0 42.1 66% 50 NA 30.14 1021.5
12:56 pm EDT S 10.4 G 16.1 NULL NULL -- 51.0 41.0 69% 47 NA 30.17 1022.3
11:56 am EDT SE 11.5 G 19.6 NULL NULL -- 50.0 41.0 71% 46 NA 30.19 1023.3
10:56 am EDT SE 9.2 G 17.3 NULL NULL -- 48.0 39.9 74% 44 NA 30.22 1024.1
9:56 am EDT SE 11.5 G 18.4 NULL NULL -- 47.0 39.0 74% 42 NA 30.24 1025.0
8:56 am EDT SE 8.1 G 17.3 NULL NULL -- 46.0 39.0 77% 42 NA 30.26 1025.6
7:56 am EDT SE 9.2 NULL NULL -- 46.0 39.0 77% 41 NA 30.26 1025.5
6:56 am EDT SE 11.5 NULL NULL -- 46.0 39.0 77% 41 NA 30.25 1025.4
5:56 am EDT SE 9.2 NULL NULL -- 46.0 39.9 79% 41 NA 30.24 1025.2
4:56 am EDT SE 6.9 NULL NULL -- 46.0 39.9 79% 42 NA 30.24 1025.0
3:56 am EDT SE 9.2 NULL NULL -- 47.0 39.9 77% 43 NA 30.23 1024.5
2:56 am EDT SE 5.8 NULL NULL -- 47.0 39.9 77% 44 NA 30.25 1025.0
1:56 am EDT SE 4.6 NULL NULL -- 47.0 39.9 77% 45 NA 30.27 1025.7
12:56 am EDT SE 4.6 NULL NULL -- 48.0 39.9 74% 46 NA 30.28 1026.1
11:56 pm EDT SE 4.6 NULL NULL -- 48.0 39.9 74% 46 NA 30.29 1026.6

Regional Weather Observation


Millinocket, Millinocket Municipal Airport, ME (KMLT)

Overcast
53.0 F

Clayton Lake, ME (K40B)

NULL
52.0 F

Waterville, Waterville Robert LaFleur Airport, ME (KWVL)

Fog/Mist
54.0 F

Bangor, Bangor International Airport, ME (KBGR)

Fog/Mist
54.0 F

Augusta, Augusta State Airport, ME (KAUG)

Fog
53.0 F

Presque Isle, ME (KPQI)

Overcast
53.0 F